| time (UTC) | temp C | wind direction | speed KPH | gust KPH | rain 1hr cm | rain 24hr cm | rain mn cm | humidity % | barometer mb |
| 20260503203344 | 15 | 259 | 25.7 | 32.2 | 0.00 | 0.15 | 0.15 | 62 | 1015.0 |
| 20260503202841 | 15 | 224 | 17.7 | 20.9 | 0.00 | 0.15 | 0.15 | 63 | 1015.1 |
| 20260503202339 | 14 | 233 | 16.1 | 24.1 | 0.00 | 0.15 | 0.15 | 65 | 1015.0 |
| 20260503201837 | 13 | 224 | 11.3 | 22.5 | 0.00 | 0.15 | 0.15 | 71 | 1015.6 |
| 20260503201334 | 12 | 188 | 1.6 | 3.2 | 0.00 | 0.15 | 0.15 | 81 | 1015.6 |
| 20260503200832 | 12 | 164 | 1.6 | 3.2 | 0.00 | 0.15 | 0.15 | 80 | 1015.8 |
| 20260503200327 | 12 | 201 | 1.6 | 3.2 | 0.00 | 0.15 | 0.15 | 82 | 1015.8 |
| 20260503195825 | 12 | 204 | 0.0 | 1.6 | 0.00 | 0.15 | 0.15 | 82 | 1016.0 |
| 20260503195321 | 11 | 220 | 0.0 | 4.8 | 0.00 | 0.15 | 0.15 | 80 | 1016.0 |
| 20260503194819 | 11 | 207 | 4.8 | 11.3 | 0.00 | 0.15 | 0.15 | 79 | 1016.4 |
| 20260503194314 | 11 | 218 | 4.8 | 8.0 | 0.00 | 0.15 | 0.15 | 80 | 1016.7 |
| 20260503193810 | 10 | 227 | 0.0 | 1.6 | 0.00 | 0.15 | 0.15 | 83 | 1016.8 |
| 20260503193307 | 10 | 214 | 3.2 | 3.2 | 0.00 | 0.15 | 0.15 | 84 | 1017.0 |
| 20260503192803 | 9 | 213 | 6.4 | 9.7 | 0.00 | 0.15 | 0.15 | 87 | 1017.2 |
| 20260503192258 | 9 | 220 | 6.4 | 8.0 | 0.18 | 0.15 | 0.15 | 90 | 1017.5 |
| 20260503191754 | 10 | 162 | 3.2 | 3.2 | 0.18 | 0.15 | 0.15 | 90 | 1017.5 |
| 20260503191252 | 9 | 180 | 1.6 | 3.2 | 0.00 | 0.13 | 0.13 | 90 | 1017.2 |
| 20260503190748 | 9 | 190 | 4.8 | 4.8 | 0.00 | 0.13 | 0.13 | 91 | 1017.3 |
| 20260503190245 | 8 | 105 | 1.6 | 3.2 | 0.00 | 0.13 | 0.13 | 90 | 1017.5 |
| 20260503185742 | 8 | 104 | 3.2 | 3.2 | 0.00 | 0.13 | 0.13 | 90 | 1017.7 |
| 20260503185238 | 8 | 100 | 1.6 | 3.2 | 0.00 | 0.13 | 0.13 | 90 | 1017.6 |
| 20260503184733 | 8 | 65 | 3.2 | 3.2 | 0.23 | 0.13 | 0.13 | 89 | 1017.9 |
| 20260503184230 | 8 | 336 | 0.0 | 1.6 | 0.23 | 0.13 | 0.13 | 85 | 1018.3 |
| 20260503183726 | 9 | 222 | 0.0 | 1.6 | 0.18 | 0.10 | 0.10 | 82 | 1018.3 |
| 20260503183223 | 8 | 240 | 9.7 | 20.9 | 0.53 | 0.10 | 0.10 | 80 | 1018.6 |
| 20260503182721 | 10 | 253 | 4.8 | 8.0 | 0.18 | 0.03 | 0.03 | 81 | 1018.7 |
| 20260503182220 | 9 | 254 | 4.8 | 4.8 | 0.00 | 0.00 | 0.00 | 78 | 1018.4 |
| 20260503181716 | 9 | 251 | 9.7 | 12.9 | 0.00 | 0.00 | 0.00 | 80 | 1018.5 |
| 20260503181213 | 9 | 248 | 8.0 | 14.5 | 0.00 | 0.00 | 0.00 | 81 | 1018.6 |
| 20260503180709 | 10 | 258 | 19.3 | 22.5 | 0.00 | 0.00 | 0.00 | 81 | 1018.8 |
| 20260503180208 | 11 | 262 | 27.4 | 33.8 | 0.00 | 0.00 | 0.00 | 72 | 1018.6 |
| 20260503175704 | 12 | 252 | 24.1 | 38.6 | 0.00 | 0.00 | 0.00 | 63 | 1018.3 |
| 20260503175202 | 12 | 262 | 30.6 | 40.2 | 0.00 | 0.00 | 0.00 | 58 | 1018.4 |
| 20260503174657 | 12 | 239 | 25.7 | 35.4 | 0.00 | 0.00 | 0.00 | 58 | 1018.2 |
| 20260503174155 | 13 | 247 | 17.7 | 29.0 | 0.00 | 0.00 | 0.00 | 62 | 1018.2 |
| 20260503173651 | 13 | 267 | 19.3 | 27.4 | 0.00 | 0.00 | 0.00 | 60 | 1018.5 |
| 20260503173147 | 13 | 252 | 19.3 | 27.4 | 0.00 | 0.00 | 0.00 | 58 | 1018.6 |
| 20260503172644 | 13 | 251 | 20.9 | 25.7 | 0.00 | 0.00 | 0.00 | 59 | 1018.6 |
| 20260503172141 | 13 | 240 | 25.7 | 32.2 | 0.00 | 0.00 | 0.00 | 58 | 1018.4 |
| 20260503171637 | 13 | 245 | 27.4 | 29.0 | 0.00 | 0.00 | 0.00 | 57 | 1018.4 |
| 20260503171135 | 14 | 251 | 20.9 | 27.4 | 0.00 | 0.00 | 0.00 | 56 | 1018.6 |
| 20260503170632 | 13 | 269 | 20.9 | 29.0 | 0.00 | 0.00 | 0.00 | 58 | 1018.8 |
| 20260503170129 | 15 | 263 | 35.4 | 37.0 | 0.00 | 0.00 | 0.00 | 57 | 1018.8 |
| 20260503150520 | 12 | 257 | 27.4 | 32.2 | 0.00 | 0.00 | 0.00 | 58 | 1020.1 |
| 20260503131413 | 8 | 237 | 16.1 | 24.1 | 0.00 | 0.00 | 0.00 | 64 | 1020.3 |
| 20260503130910 | 8 | 259 | 17.7 | 25.7 | 0.00 | 0.00 | 0.00 | 64 | 1020.5 |
| 20260503130408 | 8 | 265 | 19.3 | 29.0 | 0.00 | 0.00 | 0.00 | 62 | 1020.3 |
| 20260503110811 | 4 | 249 | 8.0 | 12.9 | 0.00 | 0.00 | 0.00 | 76 | 1020.0 |
| 20260503110308 | 4 | 237 | 8.0 | 14.5 | 0.00 | 0.00 | 0.00 | 75 | 1019.9 |
| 20260503100235 | 3 | 239 | 14.5 | 14.5 | 0.00 | 0.00 | 0.00 | 77 | 1019.6 |
| 20260503090154 | 4 | 255 | 6.4 | 8.0 | 0.00 | 0.00 | 0.00 | 76 | 1019.9 |
| 20260503081624 | 4 | 236 | 8.0 | 8.0 | 0.00 | 0.00 | 0.00 | 75 | 1020.0 |
| 20260503081121 | 5 | 259 | 4.8 | 9.7 | 0.00 | 0.00 | 0.00 | 75 | 1020.2 |
| 20260503080617 | 5 | 235 | 8.0 | 9.7 | 0.00 | 0.00 | 0.00 | 74 | 1020.0 |
| 20260503080114 | 4 | 240 | 8.0 | 11.3 | 0.00 | 0.00 | 0.00 | 74 | 1020.1 |
| 20260503071506 | 5 | 243 | 8.0 | 9.7 | 0.00 | 0.00 | 0.00 | 73 | 1020.1 |
| 20260503071002 | 5 | 243 | 8.0 | 9.7 | 0.00 | 0.00 | 0.00 | 73 | 1020.1 |
| 20260503070459 | 5 | 265 | 6.4 | 8.0 | 0.00 | 0.00 | 0.00 | 73 | 1020.3 |
| 20260503054923 | 5 | 238 | 8.0 | 8.0 | 0.00 | 0.00 | 0.00 | 71 | 1020.9 |
| 20260503054419 | 5 | 229 | 4.8 | 4.8 | 0.00 | 0.00 | 0.00 | 71 | 1020.8 |
| 20260503053917 | 5 | 234 | 4.8 | 4.8 | 0.00 | 0.00 | 0.00 | 71 | 1020.7 |
| 20260503053415 | 5 | 225 | 4.8 | 4.8 | 0.00 | 0.00 | 0.00 | 71 | 1020.9 |
| 20260503052910 | 5 | 236 | 4.8 | 8.0 | 0.00 | 0.00 | 0.00 | 70 | 1020.6 |
| 20260503052408 | 5 | 230 | 4.8 | 8.0 | 0.00 | 0.00 | 0.00 | 70 | 1020.7 |
| 20260503051904 | 5 | 227 | 6.4 | 8.0 | 0.00 | 0.00 | 0.00 | 71 | 1020.8 |
| 20260503051400 | 5 | 229 | 4.8 | 4.8 | 0.00 | 0.00 | 0.00 | 70 | 1020.9 |
| 20260503050858 | 5 | 227 | 4.8 | 8.0 | 0.00 | 0.00 | 0.00 | 70 | 1020.9 |
| 20260503050354 | 5 | 227 | 4.8 | 4.8 | 0.00 | 0.00 | 0.00 | 70 | 1021.0 |
| 20260503045851 | 5 | 230 | 4.8 | 4.8 | 0.00 | 0.00 | 0.00 | 70 | 1021.0 |
| 20260503045349 | 5 | 225 | 3.2 | 3.2 | 0.00 | 0.00 | 0.00 | 71 | 1021.1 |
| 20260503044845 | 5 | 224 | 1.6 | 3.2 | 0.00 | 0.00 | 0.00 | 72 | 1020.9 |
| 20260503044342 | 5 | 227 | 3.2 | 3.2 | 0.00 | 0.00 | 0.00 | 73 | 1021.0 |
| 20260503043839 | 5 | 220 | 1.6 | 1.6 | 0.00 | 0.00 | 0.00 | 73 | 1021.0 |
| 20260503043336 | 5 | 228 | 1.6 | 3.2 | 0.00 | 0.00 | 0.00 | 72 | 1020.9 |
| 20260503042832 | 5 | 221 | 1.6 | 3.2 | 0.00 | 0.00 | 0.00 | 73 | 1021.0 |
| 20260503042329 | 5 | 222 | 1.6 | 3.2 | 0.00 | 0.00 | 0.00 | 73 | 1021.1 |
| 20260503041825 | 5 | 220 | 1.6 | 3.2 | 0.00 | 0.00 | 0.00 | 73 | 1020.8 |
| 20260503041323 | 5 | 221 | 1.6 | 1.6 | 0.00 | 0.00 | 0.00 | 73 | 1020.9 |
| 20260503040820 | 5 | 220 | 1.6 | 3.2 | 0.00 | 0.00 | 0.00 | 73 | 1020.9 |
| 20260503040318 | 5 | 221 | 1.6 | 1.6 | 0.00 | 0.00 | 0.00 | 74 | 1020.9 |
| 20260503035815 | 5 | 223 | 1.6 | 1.6 | 0.00 | 0.00 | 0.00 | 74 | 1021.1 |
| 20260503035312 | 5 | 223 | 1.6 | 3.2 | 0.00 | 0.00 | 0.00 | 74 | 1021.2 |
| 20260503034809 | 5 | 219 | 1.6 | 3.2 | 0.00 | 0.00 | 0.00 | 75 | 1021.0 |
| 20260503034306 | 5 | 218 | 3.2 | 3.2 | 0.00 | 0.00 | 0.00 | 74 | 1021.0 |
| 20260503033803 | 5 | 223 | 3.2 | 3.2 | 0.00 | 0.00 | 0.00 | 73 | 1020.7 |
| 20260503033300 | 5 | 227 | 1.6 | 1.6 | 0.00 | 0.00 | 0.00 | 72 | 1020.9 |
| 20260503032758 | 5 | 222 | 1.6 | 1.6 | 0.00 | 0.00 | 0.00 | 72 | 1021.0 |
| 20260503032257 | 5 | 225 | 1.6 | 1.6 | 0.00 | 0.00 | 0.00 | 74 | 1021.1 |
| 20260503031754 | 4 | 340 | 0.0 | 1.6 | 0.00 | 0.00 | 0.00 | 77 | 1021.0 |
| 20260503031252 | 4 | 339 | 1.6 | 1.6 | 0.00 | 0.00 | 0.00 | 81 | 1021.0 |
| 20260503030748 | 4 | 340 | 1.6 | 1.6 | 0.00 | 0.00 | 0.00 | 81 | 1021.2 |
| 20260503030245 | 4 | 340 | 0.0 | 0.0 | 0.00 | 0.00 | 0.00 | 80 | 1021.3 |
| 20260503025741 | 5 | 340 | 0.0 | 0.0 | 0.00 | 0.00 | 0.00 | 78 | 1021.0 |
| 20260503025239 | 5 | 340 | 0.0 | 0.0 | 0.00 | 0.00 | 0.00 | 75 | 1021.2 |
| 20260503024735 | 5 | 340 | 1.6 | 1.6 | 0.00 | 0.00 | 0.00 | 78 | 1021.3 |
| 20260503024233 | 5 | 340 | 0.0 | 1.6 | 0.00 | 0.00 | 0.00 | 76 | 1021.1 |
| 20260503023729 | 5 | 340 | 0.0 | 0.0 | 0.00 | 0.00 | 0.00 | 76 | 1021.4 |
| 20260503023227 | 5 | 340 | 0.0 | 0.0 | 0.00 | 0.00 | 0.00 | 77 | 1021.1 |
| 20260503022723 | 5 | 340 | 0.0 | 1.6 | 0.00 | 0.00 | 0.00 | 82 | 1021.3 |
| 20260503022223 | 5 | 340 | 1.6 | 1.6 | 0.00 | 0.00 | 0.00 | 83 | 1021.2 |
| 20260503021720 | 5 | 340 | 1.6 | 1.6 | 0.00 | 0.00 | 0.00 | 81 | 1021.0 |
| 20260503021216 | 5 | 341 | 0.0 | 0.0 | 0.00 | 0.00 | 0.00 | 80 | 1021.2 |
| 20260503020713 | 5 | 341 | 0.0 | 0.0 | 0.00 | 0.00 | 0.00 | 78 | 1021.0 |
| 20260503020211 | 5 | 341 | 0.0 | 0.0 | 0.00 | 0.00 | 0.00 | 77 | 1021.0 |
| 20260503015708 | 5 | 341 | 0.0 | 0.0 | 0.00 | 0.00 | 0.00 | 76 | 1020.8 |
| 20260503015204 | 5 | 341 | 0.0 | 0.0 | 0.00 | 0.00 | 0.00 | 75 | 1020.7 |
| 20260503014700 | 6 | 341 | 0.0 | 0.0 | 0.00 | 0.00 | 0.00 | 73 | 1021.0 |
| 20260503014158 | 6 | 341 | 0.0 | 0.0 | 0.00 | 0.00 | 0.00 | 67 | 1021.0 |
| 20260503013655 | 6 | 340 | 0.0 | 1.6 | 0.00 | 0.00 | 0.00 | 68 | 1020.7 |
| 20260503013153 | 6 | 341 | 0.0 | 1.6 | 0.00 | 0.00 | 0.00 | 68 | 1020.8 |
| 20260503012650 | 6 | 341 | 0.0 | 1.6 | 0.00 | 0.00 | 0.00 | 67 | 1020.8 |
| 20260503012147 | 6 | 341 | 0.0 | 1.6 | 0.00 | 0.00 | 0.00 | 67 | 1020.8 |
| 20260503011643 | 6 | 341 | 0.0 | 0.0 | 0.00 | 0.00 | 0.00 | 69 | 1020.8 |
| 20260503011140 | 6 | 341 | 0.0 | 0.0 | 0.00 | 0.00 | 0.00 | 68 | 1020.6 |
| 20260503010636 | 7 | 341 | 0.0 | 0.0 | 0.00 | 0.00 | 0.00 | 63 | 1020.5 |
| 20260503010134 | 7 | 341 | 0.0 | 0.0 | 0.00 | 0.00 | 0.00 | 58 | 1020.7 |
| 20260503005631 | 7 | 341 | 0.0 | 0.0 | 0.00 | 0.00 | 0.00 | 56 | 1020.8 |
| 20260503005128 | 7 | 342 | 0.0 | 0.0 | 0.00 | 0.00 | 0.00 | 56 | 1020.8 |
| 20260503004624 | 7 | 342 | 0.0 | 1.6 | 0.00 | 0.00 | 0.00 | 56 | 1020.8 |
| 20260503004123 | 8 | 342 | 0.0 | 1.6 | 0.00 | 0.00 | 0.00 | 58 | 1020.6 |
| 20260503003619 | 8 | 341 | 0.0 | 1.6 | 0.00 | 0.00 | 0.00 | 55 | 1020.8 |
| 20260503003116 | 8 | 342 | 1.6 | 1.6 | 0.00 | 0.00 | 0.00 | 54 | 1020.7 |
| 20260503002613 | 8 | 342 | 0.0 | 1.6 | 0.00 | 0.00 | 0.00 | 53 | 1020.8 |
| 20260503002110 | 8 | 339 | 1.6 | 1.6 | 0.00 | 0.00 | 0.00 | 50 | 1020.7 |
| 20260503001606 | 8 | 353 | 1.6 | 3.2 | 0.00 | 0.00 | 0.00 | 51 | 1020.7 |
| 20260503001103 | 9 | 304 | 1.6 | 1.6 | 0.00 | 0.00 | 0.00 | 53 | 1020.8 |
| 20260503000601 | 9 | 307 | 1.6 | 1.6 | 0.00 | 0.00 | 0.00 | 50 | 1020.6 |
| 20260503000058 | 9 | 334 | 3.2 | 8.0 | 0.00 | 0.00 | 0.00 | 48 | 1020.7 |
| 20260502235554 | 9 | 330 | 1.6 | 3.2 | 0.00 | 0.00 | 0.00 | 48 | 1020.7 |
| 20260502235052 | 9 | 310 | 4.8 | 8.0 | 0.00 | 0.00 | 0.00 | 46 | 1020.5 |
| 20260502234548 | 10 | 331 | 3.2 | 8.0 | 0.00 | 0.00 | 0.00 | 47 | 1020.5 |
| 20260502234046 | 10 | 336 | 3.2 | 9.7 | 0.00 | 0.00 | 0.00 | 45 | 1020.6 |
| 20260502233546 | 10 | 342 | 4.8 | 9.7 | 0.00 | 0.00 | 0.00 | 44 | 1020.4 |
| 20260502233043 | 10 | 329 | 4.8 | 8.0 | 0.00 | 0.00 | 0.00 | 45 | 1020.4 |
| 20260502232539 | 10 | 333 | 6.4 | 8.0 | 0.00 | 0.00 | 0.00 | 48 | 1020.5 |
| 20260502232037 | 10 | 283 | 3.2 | 8.0 | 0.00 | 0.00 | 0.00 | 45 | 1020.5 |
| 20260502231533 | 10 | 335 | 6.4 | 11.3 | 0.00 | 0.00 | 0.00 | 43 | 1020.6 |
| 20260502231031 | 10 | 342 | 4.8 | 8.0 | 0.00 | 0.00 | 0.00 | 43 | 1020.6 |
| 20260502230530 | 10 | 305 | 4.8 | 8.0 | 0.00 | 0.00 | 0.00 | 45 | 1020.6 |
| 20260502230028 | 10 | 332 | 3.2 | 8.0 | 0.00 | 0.00 | 0.00 | 43 | 1020.5 |
| 20260502225523 | 10 | 22 | 3.2 | 12.9 | 0.00 | 0.00 | 0.00 | 44 | 1020.7 |
| 20260502225020 | 10 | 352 | 4.8 | 9.7 | 0.00 | 0.00 | 0.00 | 43 | 1020.9 |
| 20260502224516 | 10 | 14 | 6.4 | 11.3 | 0.00 | 0.00 | 0.00 | 44 | 1020.6 |
| 20260502224014 | 10 | 317 | 6.4 | 9.7 | 0.00 | 0.00 | 0.00 | 46 | 1020.6 |
| 20260502223511 | 10 | 314 | 3.2 | 4.8 | 0.00 | 0.00 | 0.00 | 47 | 1020.5 |
| 20260502223009 | 10 | 284 | 4.8 | 4.8 | 0.00 | 0.00 | 0.00 | 46 | 1020.4 |
| 20260502222506 | 10 | 331 | 8.0 | 11.3 | 0.00 | 0.00 | 0.00 | 47 | 1020.6 |
| 20260502222003 | 10 | 315 | 4.8 | 8.0 | 0.00 | 0.00 | 0.00 | 42 | 1020.7 |
| 20260502221458 | 10 | 350 | 4.8 | 8.0 | 0.00 | 0.00 | 0.00 | 42 | 1020.5 |
| 20260502220956 | 10 | 2 | 3.2 | 8.0 | 0.00 | 0.00 | 0.00 | 43 | 1020.7 |
| 20260502220451 | 10 | 305 | 3.2 | 4.8 | 0.00 | 0.00 | 0.00 | 47 | 1020.8 |
| 20260502215948 | 10 | 337 | 3.2 | 9.7 | 0.00 | 0.00 | 0.00 | 46 | 1020.8 |
| 20260502215446 | 10 | 329 | 6.4 | 11.3 | 0.00 | 0.00 | 0.00 | 44 | 1020.6 |
| 20260502214942 | 10 | 7 | 4.8 | 12.9 | 0.00 | 0.00 | 0.00 | 43 | 1020.7 |
| 20260502214439 | 10 | 329 | 6.4 | 14.5 | 0.00 | 0.00 | 0.00 | 44 | 1020.8 |
| 20260502213936 | 10 | 354 | 4.8 | 11.3 | 0.00 | 0.00 | 0.00 | 45 | 1020.7 |
| 20260502213433 | 9 | 288 | 1.6 | 4.8 | 0.00 | 0.00 | 0.00 | 48 | 1020.5 |
| 20260502212932 | 9 | 331 | 3.2 | 8.0 | 0.00 | 0.00 | 0.00 | 46 | 1020.6 |
| 20260502212430 | 9 | 319 | 1.6 | 9.7 | 0.00 | 0.00 | 0.00 | 46 | 1020.6 |
| 20260502211927 | 10 | 349 | 6.4 | 9.7 | 0.00 | 0.00 | 0.00 | 45 | 1020.5 |
| 20260502211423 | 10 | 326 | 3.2 | 11.3 | 0.00 | 0.00 | 0.00 | 46 | 1020.4 |
| 20260502210920 | 10 | 329 | 4.8 | 11.3 | 0.00 | 0.00 | 0.00 | 44 | 1020.6 |
| 20260502210417 | 9 | 339 | 4.8 | 9.7 | 0.00 | 0.00 | 0.00 | 47 | 1020.6 |
| 20260502205914 | 10 | 303 | 3.2 | 8.0 | 0.00 | 0.00 | 0.00 | 47 | 1020.6 |
| 20260502205410 | 10 | 298 | 3.2 | 4.8 | 0.00 | 0.00 | 0.00 | 48 | 1020.8 |
| 20260502204908 | 10 | 4 | 6.4 | 12.9 | 0.00 | 0.00 | 0.00 | 47 | 1020.7 |
| 20260502204404 | 10 | 321 | 4.8 | 9.7 | 0.00 | 0.00 | 0.00 | 47 | 1020.6 |
| 20260502203902 | 10 | 292 | 1.6 | 9.7 | 0.00 | 0.00 | 0.00 | 46 | 1020.8 |